Showing default

COSMOS 1909, 18788

Orbit data source: Space-Track

COSMOS 1909, 18788 is a payload satellite owned by UNKS (CIS) in LEO that was launched on Fri, 15 Jan 1988 UTC via a TSIKLON-3 launch vehicle from the Plesetsk Missile And Space Complex (PKMTR). Payload-class satellites include a variety of spacecraft equipped with specific instruments for various scientific and technological missions. These include communications satellites like Starlink; space stations such as the ISS; scientific satellites like the Hubble; Earth observation satellites from companies like Planet Labs, Umbra, and HawkEye 360; GPS; miniature CubeSats for education and research; and military/defense satellites.

Loading next visibility...
Identifier
18788, 1988-002A
Orbit
LEO
Country
Flag of CISCIS
Related business
Manufacturer
NPO PM
Mission
Defense Communications
Bus & Motor
STRELA-3, Unknown motor
Mass
225 kg wet, 225 kg dry
Launch date (UTC)
1988-01-15 (38 years ago)
Launch vehicle
TSIKLON-3
Launch site
Plesetsk Missile And Space Complex (PKMTR)
Object type
Payload
Rocket body
Debris
Shape & HBR
Cyl, 0.8 m
Radar Cross Section
1.257 m², Large (>1 m²)

Expand to show TLE details & history
Last TLE update: 8 hours ago

TLE from 8 hours ago
0 COSMOS 1909
1 18788U 88002A   25351.91070863  .00000038  00000-0  14955-3 0  9998
2 18788  82.6121  32.7303 0002131  49.0228 124.1466 12.62864734747920
Epoch: 2025-12-17T21:51Z
TLE epoch observation values (Epoch: 2025-12-17T21:51:25.225Z)
Latitude
6.68356°
Longitude
157.23512°
Altitude
1,414.19 km
Speed
7.153 km/s
True Right ascension
14h 07m 27s
True Declination
6° 38' 50"
Sunlit
Object was in daylight at epoch
Visualization orbit readout
Latitude
Unknown
Longitude
Unknown
Altitude
Unknown
Speed
Unknown
Apparent Right ascension
Unknown
Apparent Declination
Unknown
Sunlit
N/A
Visualization observer readout
Local Sidereal Time
04:50:12
Azimuth
Unknown
Elevation
Unknown
Doppler factor
Unknown
Orbital elements
Apogee altitude
1,410.12 km
Perigee altitude
1,406.802 km
Semi-major axis
7,786.598 km
Eccentricity
0.00021
Inclination
82.6121°
RAAN
32.7303°
Arg. of periapsis
49.0228°
True anomaly
124.16681°
Mean anomaly
124.1466°
Eccentric anomaly
124.1567°
Mean motion
3.1588 °/min
Orbital period
113.97 mins
BSTAR
0.00014955
Loading maneuver chart data...
Computing Atmospheric mass density...
Loading historical data...
Loading historical data...
Loading historical data...
Loading historical data...
Loading historical data...
Loading historical data...
Loading historical data...

Documentation

Showing up to 5 results
|